Back to catalog

STARLINK-35372

AliveCommunicationsVLEO
NORAD 66476·PAYLOAD·🇺🇸 United States

Launched Nov 15, 2025 from Cape Canaveral Space Force Station

Loading…

Next Passes (next 24 hours)

TLE

FreshSource: CelesTrak SupGP

Epoch: Sep 14, 2026, 15:41 UTC

1 66476C 25262W   26257.65395833  .00042122  00000+0  15263-2 0  2576
2 66476  43.0009 309.0646 0001515 279.9741 138.5440 15.27543873    17

Track STARLINK-35372 in real time with AllMySat

Download on the App Store